[[{"header":{"parameterUnit":"m.s-1","parameterCategory":1,"la1":30.2991,"la2":30.254,"lo1":-89.0895,"lo2":-89.0444,"dy":0.0017,"dx":0.0017,"nx":28,"ny":28,"refTime":"2025-05-26T03:00:00:Z","depth":0,"parameterNumber":2,"parameterNumberName":"U-component_of_WINDS"},"data":[0,0,0,0,0,0,0,0,0,0,0,0,0,0,0,0,0,0,0,0,0,0,0,0,0,0,0,0,0,0,0,0,0,0,0,0,0,0,0,0,0,0,0,0,0,0,0,0,0,0,0,0,0,0,0,0,0,0,2.1864,2.1866,0,2.1976,2.1977,2.1978,2.1998,2.1997,2.1996,2.1995,2.2107,2.2111,2.2115,0,0,0,0,0,0,0,0,0,0,0,0,0,2.1665,2.1669,2.1864,2.1866,2.1867,2.1976,2.1977,2.1979,2.1998,2.1997,2.1996,2.1995,2.2106,2.2111,2.2115,0,0,0,0,0,0,0,0,0,0,0,0,0,2.1762,2.167,2.1864,2.189,2.1893,2.1975,2.1977,2.1979,2.1998,2.1997,2.1996,2.1994,2.2105,2.211,2.2116,2.2179,0,0,2.2134,2.2136,0,0,0,0,0,0,0,0,2.1756,2.1769,2.1885,2.1888,2.1892,2.1972,2.1948,2.2046,2.1999,2.1958,2.1995,2.1994,2.2063,2.2072,2.2096,2.2184,2.2189,2.2134,2.2138,2.214,2.2142,0,0,0,0,0,0,0,2.175,2.1764,2.1908,2.1886,2.1891,2.1895,2.1907,2.1967,2.2017,2.1962,2.1964,2.1977,2.2065,2.2091,2.2099,2.2191,2.2134,2.2139,2.2143,2.2145,2.2334,2.2335,0,0,0,0,0,0,2.1739,2.1759,2.1905,2.1912,2.182,2.19,2.1913,2.1948,2.2017,2.2026,2.1978,2.1977,2.2081,2.2092,2.2103,2.2179,2.214,2.2145,2.2149,2.2332,2.2334,2.2336,0,0,0,0,0,0,2.1734,2.1751,2.19,2.1836,2.1855,2.1905,2.1943,2.195,2.1976,2.2029,2.2037,2.1995,2.2081,2.2095,2.216,2.2184,2.2148,2.2153,2.233,2.2333,2.2335,2.2334,0,0,0,0,0,0,2.1728,2.175,2.1775,2.1836,2.1858,2.1956,2.1944,2.1954,2.1986,2.1986,2.2047,2.2056,2.2081,2.2151,2.2165,2.2191,2.2158,2.2328,2.2331,2.2334,2.2332,2.2336,2.2339,0,0,0,0,0,2.1721,2.1771,2.1776,2.1794,2.1891,2.1957,2.197,2.1999,2.1988,2.2013,2.2046,2.2054,2.2179,2.2157,2.2174,2.2201,2.2327,2.233,2.2334,2.233,2.2335,2.2339,0,0,0,0,0,0,2.1711,2.1779,2.1786,2.1857,2.1901,2.1961,2.1993,2.2003,2.2051,2.2049,2.2082,2.2095,2.2158,2.2186,2.2161,2.2265,2.2252,2.2259,2.2244,2.2249,2.2252,2.2243,2.2163,0,0,0,0,0,2.1717,2.1766,2.1823,2.188,2.1902,2.1944,2.1974,2.1992,2.2038,2.2057,2.2095,2.214,2.2189,2.2221,2.2269,2.2337,2.2349,2.2364,2.2367,2.237,2.2375,2.241,2.2417,2.2347,2.2347,2.2347,0,0,2.173,2.1773,2.1802,2.1879,2.1915,2.1963,2.1959,2.2011,2.2047,2.2065,2.2128,2.2157,2.2209,2.2274,2.2305,2.23,2.2397,2.2374,2.2376,2.238,2.2414,2.2421,2.2427,2.2349,2.2349,2.2349,0,0,2.1778,2.1817,2.1867,2.1904,2.1959,2.1986,2.1998,2.2056,2.2076,2.214,2.2153,2.2196,2.2281,2.2316,2.2345,2.2404,2.2412,2.2419,2.2438,2.2472,2.2477,2.2482,2.2501,2.2508,2.2424,2.2424,2.2425,0,2.1787,2.1862,2.1892,2.1943,2.1975,2.1993,2.2043,2.2077,2.2145,2.2166,2.216,2.2265,2.2301,2.2374,2.2388,2.2412,2.2425,2.2412,2.2474,2.2479,2.2485,2.2503,2.251,2.2425,2.2425,2.2425,2.2425,0,2.1868,2.192,2.1954,2.2018,2.2054,2.2105,2.2141,2.2174,2.2189,2.2216,2.2279,2.2323,2.238,2.2399,2.2414,2.2473,2.2468,2.2468,2.2455,2.2491,2.2509,2.2516,2.2425,2.2425,2.2425,2.2425,0,0,2.1913,2.1993,2.2005,2.2033,2.2095,2.2134,2.2184,2.224,2.2266,2.2312,2.2354,2.2424,2.2423,2.2456,2.2475,2.2505,2.2546,2.2501,2.2502,2.2506,2.2612,2.261,2.2618,2.2552,2.2554,2.2555,2.2607,0,2.1967,2.2058,2.2085,2.2161,2.2207,2.2225,2.2268,2.2309,2.2336,2.2378,2.2408,2.2456,2.2453,2.2472,2.2503,2.2535,2.2568,2.2532,2.2589,2.2591,2.2574,2.2628,2.2627,2.2674,2.2614,2.2615,2.2616,0,2.2042,2.2088,2.2168,2.2221,2.2242,2.2281,2.2332,2.2373,2.242,2.2437,2.2473,2.2489,2.254,2.2525,2.2596,2.257,2.2596,2.2615,2.2617,2.2622,2.2605,2.2633,2.269,2.2696,2.2628,2.2627,2.2626,0,2.2063,2.2146,2.2204,2.2228,2.2293,2.2319,2.2347,2.2392,2.2423,2.2468,2.2488,2.2538,2.2565,2.2603,2.2632,2.2619,2.2699,2.2687,2.2713,2.2712,2.2728,2.2726,2.2788,2.2747,2.2747,2.2747,2.2746,0,2.2119,2.2167,2.2214,2.225,2.2303,2.2334,2.2385,2.2414,2.2454,2.2494,2.2513,2.255,2.2586,2.2627,2.265,2.2703,2.2716,2.273,2.2735,2.2727,2.2725,2.2743,2.274,2.2748,2.2748,2.2748,2.2747,0,2.2152,2.2186,2.225,2.2305,2.232,2.2357,2.2403,2.2438,2.2465,2.2515,2.2529,2.2571,2.262,2.2653,2.2717,2.2732,2.2789,2.2794,2.2773,2.2775,2.2798,2.2795,2.2873,2.2884,2.2836,2.2837,2.2837,0,2.2185,2.2222,2.228,2.2309,2.2337,2.2382,2.2413,2.2445,2.2476,2.2531,2.2558,2.2609,2.2651,2.2729,2.2765,2.2813,2.2818,2.2842,2.2826,2.2816,2.2816,2.2813,2.2816,2.2844,2.2845,2.2845,2.2845,0,2.2238,2.2253,2.2297,2.2347,2.2384,2.2425,2.2466,2.2488,2.2526,2.256,2.2611,2.2643,2.2707,2.2757,2.2808,2.2835,2.2846,2.285,2.2858,2.285,2.2835,2.2842,2.2778,2.2848,2.2848,2.2848,2.2847,2.2847,2.2271,2.2303,2.2349,2.2398,2.2432,2.2469,2.2503,2.2534,2.2577,2.2632,2.2648,2.27,2.2744,2.2813,2.2841,2.2882,2.2879,2.2892,2.2894,2.2896,2.2895,2.283,2.2892,2.2892,2.2892,2.2892,2.2891,0,2.2323,2.2353,2.2397,2.2454,2.2491,2.2499,2.2544,2.2574,2.262,2.266,2.2701,2.2758,2.2806,2.2845,2.2893,2.2918,2.2924,2.293,2.2927,2.2933,2.2896,2.2883,2.2924,2.2924,2.2924,2.2924,2.2924,2.2924,2.2355,2.241,2.2429,2.25,2.253,2.2582,2.2607,2.264,2.2672,2.2735,2.2775,2.28,2.2839,2.2891,2.2934,2.2944,2.296,2.2965,2.2975,2.294,2.2936,2.2932,2.292,2.2968,2.2968,2.3009,2.3009,2.3009]},{"header":{"parameterUnit":"m.s-1","parameterCategory":1,"la1":30.2991,"la2":30.254,"lo1":-89.0895,"lo2":-89.0444,"dy":0.0017,"dx":0.0017,"nx":28,"ny":28,"refTime":"2025-05-26T03:00:00:Z","depth":0,"parameterNumber":3,"parameterNumberName":"V-component_of_WINDS"},"data":[0,0,0,0,0,0,0,0,0,0,0,0,0,0,0,0,0,0,0,0,0,0,0,0,0,0,0,0,0,0,0,0,0,0,0,0,0,0,0,0,0,0,0,0,0,0,0,0,0,0,0,0,0,0,0,0,0,0,2.5768,2.5769,0,2.5834,2.5835,2.5836,2.5808,2.5807,2.5805,2.5804,2.5868,2.5871,2.5874,0,0,0,0,0,0,0,0,0,0,0,0,0,2.5613,2.5616,2.5768,2.5769,2.577,2.5834,2.5835,2.5836,2.5809,2.5807,2.5805,2.5803,2.5867,2.587,2.5874,0,0,0,0,0,0,0,0,0,0,0,0,0,2.568,2.5617,2.5768,2.5764,2.5764,2.5834,2.5835,2.5836,2.5809,2.5807,2.5804,2.5802,2.5865,2.587,2.5875,2.5951,0,0,2.5889,2.5891,0,0,0,0,0,0,0,0,2.5676,2.5685,2.5764,2.5764,2.5765,2.5811,2.5804,2.5875,2.581,2.5792,2.5804,2.5801,2.585,2.5856,2.5874,2.5954,2.5957,2.589,2.5893,2.5895,2.5896,0,0,0,0,0,0,0,2.5671,2.5682,2.5794,2.5765,2.5766,2.5757,2.5764,2.5817,2.5833,2.5793,2.5792,2.58,2.585,2.5869,2.5875,2.5958,2.589,2.5894,2.5897,2.5899,2.6102,2.6104,0,0,0,0,0,0,2.5667,2.5679,2.5792,2.5796,2.5714,2.5762,2.577,2.5798,2.5833,2.5836,2.5802,2.5798,2.5862,2.587,2.5877,2.5968,2.5895,2.5899,2.5902,2.6099,2.6102,2.6105,0,0,0,0,0,0,2.5664,2.5678,2.5789,2.5737,2.5751,2.5767,2.58,2.5801,2.582,2.5839,2.5842,2.5819,2.5861,2.5871,2.5933,2.597,2.5901,2.5905,2.6096,2.61,2.6104,2.615,0,0,0,0,0,0,2.566,2.5677,2.5707,2.5738,2.5754,2.5846,2.5802,2.5804,2.5829,2.5825,2.5856,2.5859,2.586,2.5926,2.5938,2.5975,2.5909,2.6093,2.6098,2.6103,2.6146,2.6155,2.6164,0,0,0,0,0,2.5654,2.5717,2.5709,2.5723,2.5792,2.5848,2.5857,2.5858,2.5832,2.5862,2.5874,2.5858,2.5964,2.5932,2.5945,2.5985,2.6091,2.6097,2.6102,2.6142,2.6153,2.6163,0,0,0,0,0,0,2.569,2.5721,2.5712,2.5788,2.5816,2.5843,2.5881,2.5871,2.5905,2.59,2.5899,2.5906,2.597,2.5983,2.5948,2.6059,2.6023,2.6032,2.6049,2.606,2.6069,2.6064,2.5913,0,0,0,0,0,2.5706,2.575,2.5775,2.5839,2.5853,2.5865,2.5889,2.5888,2.5916,2.5927,2.5944,2.597,2.6009,2.6035,2.6073,2.6147,2.6152,2.618,2.6189,2.6197,2.6204,2.6243,2.6255,2.6124,2.6124,2.6124,0,0,2.5741,2.5764,2.5792,2.5847,2.5868,2.5912,2.5875,2.5923,2.5955,2.5934,2.5994,2.6007,2.6036,2.6105,2.6136,2.6118,2.6241,2.6204,2.621,2.6213,2.625,2.6262,2.6273,2.6128,2.6127,2.6127,0,0,2.5827,2.5849,2.5904,2.5926,2.5959,2.5966,2.5979,2.6009,2.6017,2.6077,2.6061,2.6098,2.6166,2.6187,2.6207,2.6299,2.6284,2.6311,2.6358,2.6395,2.6406,2.6415,2.6447,2.6458,2.6318,2.6318,2.6318,0,2.5866,2.5933,2.5934,2.5983,2.6007,2.599,2.6045,2.6065,2.6108,2.6124,2.6104,2.6188,2.6206,2.6279,2.6301,2.6318,2.6331,2.6307,2.6405,2.6414,2.6422,2.6452,2.6464,2.6321,2.6321,2.632,2.632,0,2.5978,2.6025,2.6065,2.6108,2.6136,2.6188,2.6194,2.6222,2.6218,2.6226,2.6286,2.6308,2.6349,2.6365,2.6361,2.6437,2.6425,2.6405,2.6368,2.6438,2.6466,2.6477,2.6325,2.6324,2.6323,2.6323,0,0,2.609,2.6131,2.6146,2.6164,2.6199,2.6234,2.6283,2.6324,2.6348,2.6377,2.6418,2.6475,2.6456,2.6478,2.6475,2.6509,2.6578,2.6484,2.6485,2.65,2.6661,2.6676,2.669,2.6569,2.6571,2.6573,2.6658,0,2.6177,2.6267,2.6268,2.6349,2.6391,2.6375,2.6418,2.6442,2.6451,2.6486,2.6495,2.6535,2.6508,2.6521,2.6553,2.6563,2.661,2.6557,2.6605,2.6607,2.6599,2.6704,2.6721,2.6801,2.6669,2.6671,2.6673,0,2.6293,2.6327,2.6412,2.6439,2.6456,2.6496,2.6532,2.6566,2.6593,2.6596,2.6621,2.6613,2.6661,2.6623,2.6689,2.6652,2.6672,2.6679,2.6682,2.6687,2.6644,2.6711,2.6826,2.6838,2.669,2.6689,2.6688,0,2.6364,2.6431,2.6491,2.6507,2.654,2.6567,2.6582,2.6606,2.663,2.6661,2.6676,2.6712,2.6731,2.6758,2.6759,2.6732,2.6825,2.6787,2.6829,2.6829,2.6849,2.6848,2.6969,2.6862,2.6862,2.6862,2.6862,0,2.6462,2.6515,2.6523,2.656,2.6618,2.6617,2.6674,2.6686,2.6707,2.6744,2.6732,2.6766,2.6766,2.6801,2.6801,2.6855,2.6864,2.6867,2.6867,2.6868,2.6868,2.6881,2.6876,2.6865,2.6864,2.6864,2.6863,0,2.6553,2.656,2.6624,2.665,2.6657,2.6699,2.6719,2.6753,2.676,2.6807,2.6818,2.6828,2.6868,2.6872,2.6918,2.6919,2.6983,2.6977,2.6975,2.6974,2.7015,2.7011,2.7148,2.7165,2.7048,2.7049,2.705,0,2.6615,2.6655,2.6685,2.671,2.6726,2.6766,2.679,2.679,2.6815,2.6847,2.6877,2.6916,2.6947,2.7011,2.7022,2.7057,2.7051,2.7096,2.7056,2.7056,2.7051,2.7048,2.7052,2.7104,2.7106,2.7107,2.7108,0,2.6724,2.6725,2.6762,2.6799,2.6828,2.6857,2.6884,2.6904,2.6907,2.6936,2.6978,2.7002,2.7049,2.7087,2.7121,2.7134,2.7121,2.712,2.7131,2.7134,2.7131,2.7132,2.6996,2.7117,2.7116,2.7115,2.7115,2.7115,2.6802,2.6836,2.6862,2.6903,2.6923,2.6948,2.6981,2.6992,2.7027,2.7066,2.7063,2.7108,2.7131,2.7176,2.7191,2.7225,2.7209,2.7226,2.723,2.7234,2.7238,2.7125,2.7231,2.7231,2.723,2.723,2.723,0,2.691,2.6925,2.6962,2.7001,2.7032,2.7018,2.7046,2.7073,2.7113,2.7136,2.7167,2.7214,2.725,2.7263,2.7298,2.7323,2.7318,2.7332,2.733,2.7333,2.725,2.7237,2.7336,2.7336,2.7336,2.7336,2.7336,2.7336,2.697,2.7027,2.7031,2.7097,2.7112,2.7158,2.7175,2.7197,2.7216,2.7269,2.7299,2.7308,2.7326,2.7362,2.7394,2.7397,2.741,2.7427,2.7427,2.735,2.7339,2.7329,2.7316,2.743,2.743,2.7507,2.7508,2.7508]}]]